User: anonymous   Login
Location: Observatorio Las Palmas
(29.0667°N, 110.9333°W)
Time: 21:51:30
(UTC-07:00)
Language:

NOAA 19 - Orbit

View from above orbital plane
View from above orbital plane
View from above satellite
View from above satellite

Ground track
Ground track

The orbit data is extracted from the following two-line orbital elements,

1 33591U 09005A   17204.61556113 +.00000083 +00000-0 +69871-4 0  9993
2 33591 099.0953 171.9640 0014137 165.5442 194.6136 14.12196535435536
Epoch (UTC): 23 July 2017 14:46:24
Eccentricity: 0.0014137
inclination: 99.0953°
perigee height: 841 km
apogee height: 862 km
right ascension of ascending node: 171.9640°
argument of perigee: 165.5442°
revolutions per day: 14.12196535
mean anomaly at epoch: 194.6136°
orbit number at epoch: 43553

The dashed part of the orbit path shows where the satellite is in the earth's shadow,  

DLR